SAUDICOMSAT 2

Last updated on Sun Jun 21 2026 00:03:22 GMT+0000 (Coordinated Universal Time)

1 28370U 04025E 26171.02338582 .00000164 00000+0 54375-4 0 9997 2 28370 98.6640 183.3499 0054236 250.7204 108.8117 14.49982524160519
UTC large
Height (km)
Speed (km/s)
/
Latitude / Longitude
Inclination (degrees)
Orbital Period (minutes)
Azimuth
Elevation
Range (km)
Doppler Factor

Next 0 passes for location: London (51.5072 / 0.1276)

No passes found over London.
SAUDICOMSAT 2